カタログに戻る

THOR ABLESTAR DEB

運用中LEO
NORAD 131·DEBRIS·🇺🇸 United States

打ち上げ Jun 29, 1961 から Cape Canaveral Space Force Station

Loading…

次のパス (今後24時間)

TLE

最新Source: Space-Track

元期: Sep 14, 2026, 08:36 UTC

1 00131U 61015R   26257.35862095  .00000070  00000-0  95705-4 0  9995
2 00131  66.7329 241.2046 0079275   1.8870 358.2497 14.01811385315967

AllMySatでTHOR ABLESTAR DEBをリアルタイム追跡

Download on the App Store